Time,TemperatureF,DewpointF,PressureIn,WindDirection,WindDirectionDegrees,WindSpeedMPH,WindSpeedGustMPH,Humidity,HourlyPrecipIn,Conditions,Clouds,dailyrainin,SoftwareType,DateUTC
2013-03-08 00:00:00,19.6,14.7,30.33,East,97,0.0,4.0,81,0.00,,SKC,0.00,VWS V14.01,2013-03-08 06:00:00,
2013-03-08 00:02:00,16.4,12.9,30.34,East,97,0.0,0.0,86,0.00,,SKC,0.00,VWS V14.01,2013-03-08 06:02:00,
2013-03-08 00:07:00,16.6,13.4,30.34,East,97,0.0,0.0,87,0.00,,SKC,0.00,VWS V14.01,2013-03-08 06:07:00,
2013-03-08 00:12:00,17.5,14.6,30.34,East,97,2.0,2.0,88,0.00,,SKC,0.00,VWS V14.01,2013-03-08 06:12:00,
2013-03-08 00:17:00,18.5,15.0,30.34,East,97,0.0,2.0,86,0.00,,SKC,0.00,VWS V14.01,2013-03-08 06:17:00,
2013-03-08 00:22:00,19.2,15.2,30.34,East,97,0.0,2.0,84,0.00,,SKC,0.00,VWS V14.01,2013-03-08 06:22:00,
2013-03-08 00:27:00,19.6,15.0,30.34,East,97,0.0,2.0,82,0.00,,SKC,0.00,VWS V14.01,2013-03-08 06:27:00,
2013-03-08 00:30:00,19.6,14.7,30.34,East,97,0.0,4.0,81,0.00,,SKC,0.00,VWS V14.01,2013-03-08 06:30:00,
2013-03-08 00:32:00,19.7,14.8,30.34,East,97,0.0,0.0,81,0.00,,SKC,0.00,VWS V14.01,2013-03-08 06:32:00,
2013-03-08 00:37:00,19.4,14.2,30.34,East,97,0.0,1.0,80,0.00,,SKC,0.00,VWS V14.01,2013-03-08 06:37:00,
2013-03-08 00:42:00,19.5,14.9,30.34,East,97,0.0,1.0,82,0.00,,SKC,0.00,VWS V14.01,2013-03-08 06:42:00,
2013-03-08 00:47:00,19.5,14.6,30.33,East,97,1.0,2.0,81,0.00,,SKC,0.00,VWS V14.01,2013-03-08 06:47:00,
2013-03-08 00:52:00,19.5,14.6,30.33,East,97,1.0,2.0,81,0.00,,SKC,0.00,VWS V14.01,2013-03-08 06:52:00,
2013-03-08 00:57:00,19.6,14.7,30.33,East,97,1.0,4.0,81,0.00,,SKC,0.00,VWS V14.01,2013-03-08 06:57:00,
2013-03-08 01:00:00,17.7,13.4,30.34,East,97,0.0,1.0,83,0.00,,SKC,0.00,VWS V14.01,2013-03-08 07:00:00,
2013-03-08 01:02:00,19.7,14.8,30.33,East,97,1.0,2.0,81,0.00,,SKC,0.00,VWS V14.01,2013-03-08 07:02:00,
2013-03-08 01:07:00,19.7,14.8,30.34,East,97,0.0,2.0,81,0.00,,SKC,0.00,VWS V14.01,2013-03-08 07:07:00,
2013-03-08 01:12:00,19.7,14.8,30.34,East,97,1.0,4.0,81,0.00,,SKC,0.00,VWS V14.01,2013-03-08 07:12:00,
2013-03-08 01:17:00,19.6,14.7,30.34,East,97,1.0,4.0,81,0.00,,SKC,0.00,VWS V14.01,2013-03-08 07:17:00,
2013-03-08 01:22:00,19.6,14.4,30.34,East,97,0.0,4.0,80,0.00,,SKC,0.00,VWS V14.01,2013-03-08 07:22:00,
2013-03-08 01:27:00,19.6,14.7,30.34,East,97,0.0,4.0,81,0.00,,SKC,0.00,VWS V14.01,2013-03-08 07:27:00,
2013-03-08 01:30:00,18.0,14.3,30.34,East,97,0.0,2.0,85,0.00,,SKC,0.00,VWS V14.01,2013-03-08 07:30:00,
2013-03-08 01:32:00,19.5,14.4,30.35,East,97,0.0,0.0,80,0.00,,SKC,0.00,VWS V14.01,2013-03-08 07:32:00,
2013-03-08 01:37:00,19.3,14.1,30.35,East,97,0.0,0.0,80,0.00,,SKC,0.00,VWS V14.01,2013-03-08 07:37:00,
2013-03-08 01:42:00,18.9,13.8,30.35,East,97,0.0,0.0,80,0.00,,SKC,0.00,VWS V14.01,2013-03-08 07:42:00,
2013-03-08 01:47:00,18.5,13.6,30.35,East,97,0.0,0.0,81,0.00,,SKC,0.00,VWS V14.01,2013-03-08 07:47:00,
2013-03-08 01:52:00,18.1,13.5,30.35,East,97,0.0,1.0,82,0.00,,SKC,0.00,VWS V14.01,2013-03-08 07:52:00,
2013-03-08 01:57:00,17.7,13.1,30.34,East,97,0.0,1.0,82,0.00,,SKC,0.00,VWS V14.01,2013-03-08 07:57:00,
2013-03-08 02:00:00,18.2,14.2,30.33,East,97,0.0,2.0,84,0.00,,SKC,0.00,VWS V14.01,2013-03-08 08:00:00,
2013-03-08 02:02:00,17.6,13.3,30.34,East,97,0.0,2.0,83,0.00,,SKC,0.00,VWS V14.01,2013-03-08 08:02:00,
2013-03-08 02:07:00,17.7,13.7,30.34,East,97,0.0,2.0,84,0.00,,SKC,0.00,VWS V14.01,2013-03-08 08:07:00,
2013-03-08 02:12:00,17.6,13.3,30.34,East,97,0.0,2.0,83,0.00,,SKC,0.00,VWS V14.01,2013-03-08 08:12:00,
2013-03-08 02:17:00,17.5,13.8,30.34,East,97,0.0,2.0,85,0.00,,SKC,0.00,VWS V14.01,2013-03-08 08:17:00,
2013-03-08 02:22:00,17.7,14.0,30.34,East,97,0.0,2.0,85,0.00,,SKC,0.00,VWS V14.01,2013-03-08 08:22:00,
2013-03-08 02:27:00,17.9,14.2,30.34,East,97,0.0,2.0,85,0.00,,SKC,0.00,VWS V14.01,2013-03-08 08:27:00,
2013-03-08 02:30:00,17.5,14.3,30.32,East,97,0.0,1.0,87,0.00,,SKC,0.00,VWS V14.01,2013-03-08 08:30:00,
2013-03-08 02:32:00,17.9,16.0,30.34,East,97,0.0,0.0,92,0.00,,SKC,0.00,VWS V14.01,2013-03-08 08:32:00,
2013-03-08 02:37:00,17.7,13.7,30.34,East,97,0.0,0.0,84,0.00,,SKC,0.00,VWS V14.01,2013-03-08 08:37:00,
2013-03-08 02:42:00,17.9,14.2,30.34,East,97,0.0,2.0,85,0.00,,SKC,0.00,VWS V14.01,2013-03-08 08:42:00,
2013-03-08 02:47:00,18.0,14.3,30.33,East,97,0.0,2.0,85,0.00,,SKC,0.00,VWS V14.01,2013-03-08 08:47:00,
2013-03-08 02:52:00,18.1,14.4,30.33,East,97,1.0,2.0,85,0.00,,SKC,0.00,VWS V14.01,2013-03-08 08:52:00,
2013-03-08 02:57:00,18.2,14.5,30.33,East,97,1.0,2.0,85,0.00,,SKC,0.00,VWS V14.01,2013-03-08 08:57:00,
2013-03-08 03:00:00,17.5,14.6,30.32,East,97,0.0,4.0,88,0.00,,SKC,0.00,VWS V14.01,2013-03-08 09:00:00,
2013-03-08 03:02:00,18.2,14.5,30.33,East,97,0.0,1.0,85,0.00,,SKC,0.00,VWS V14.01,2013-03-08 09:02:00,
2013-03-08 03:07:00,18.3,14.6,30.33,East,97,0.0,1.0,85,0.00,,SKC,0.00,VWS V14.01,2013-03-08 09:07:00,
2013-03-08 03:12:00,18.2,14.2,30.33,East,97,0.0,1.0,84,0.00,,SKC,0.00,VWS V14.01,2013-03-08 09:12:00,
2013-03-08 03:17:00,17.8,13.5,30.33,East,97,0.0,1.0,83,0.00,,SKC,0.00,VWS V14.01,2013-03-08 09:17:00,
2013-03-08 03:22:00,17.5,13.8,30.33,East,97,0.0,1.0,85,0.00,,SKC,0.00,VWS V14.01,2013-03-08 09:22:00,
2013-03-08 03:27:00,17.4,14.2,30.32,East,97,0.0,1.0,87,0.00,,SKC,0.00,VWS V14.01,2013-03-08 09:27:00,
2013-03-08 03:30:00,17.1,14.4,30.32,East,97,0.0,1.0,89,0.00,,SKC,0.00,VWS V14.01,2013-03-08 09:30:00,
2013-03-08 03:32:00,17.6,14.4,30.32,East,97,0.0,0.0,87,0.00,,SKC,0.00,VWS V14.01,2013-03-08 09:32:00,
2013-03-08 03:37:00,17.7,14.5,30.32,East,97,0.0,1.0,87,0.00,,SKC,0.00,VWS V14.01,2013-03-08 09:37:00,
2013-03-08 03:42:00,17.7,14.5,30.32,East,97,0.0,4.0,87,0.00,,SKC,0.00,VWS V14.01,2013-03-08 09:42:00,
2013-03-08 03:47:00,17.5,14.0,30.32,East,97,0.0,4.0,86,0.00,,SKC,0.00,VWS V14.01,2013-03-08 09:47:00,
2013-03-08 03:52:00,17.4,14.2,30.32,East,97,1.0,4.0,87,0.00,,SKC,0.00,VWS V14.01,2013-03-08 09:52:00,
2013-03-08 03:57:00,17.5,14.6,30.32,East,97,0.0,4.0,88,0.00,,SKC,0.00,VWS V14.01,2013-03-08 09:57:00,
2013-03-08 04:00:00,17.4,15.0,30.32,East,97,0.0,2.0,90,0.00,,SKC,0.00,VWS V14.01,2013-03-08 10:00:00,
2013-03-08 04:02:00,17.4,13.9,30.32,East,97,0.0,0.0,86,0.00,,SKC,0.00,VWS V14.01,2013-03-08 10:02:00,
2013-03-08 04:07:00,17.1,13.9,30.33,East,97,0.0,0.0,87,0.00,,SKC,0.00,VWS V14.01,2013-03-08 10:07:00,
2013-03-08 04:12:00,17.0,14.1,30.33,East,97,0.0,1.0,88,0.00,,SKC,0.00,VWS V14.01,2013-03-08 10:12:00,
2013-03-08 04:17:00,16.9,14.0,30.33,East,97,0.0,1.0,88,0.00,,SKC,0.00,VWS V14.01,2013-03-08 10:17:00,
2013-03-08 04:22:00,17.0,14.3,30.32,East,97,0.0,1.0,89,0.00,,SKC,0.00,VWS V14.01,2013-03-08 10:22:00,
2013-03-08 04:27:00,17.1,14.4,30.32,East,97,0.0,1.0,89,0.00,,SKC,0.00,VWS V14.01,2013-03-08 10:27:00,
2013-03-08 04:30:00,17.1,14.7,30.33,East,97,0.0,2.0,90,0.00,,SKC,0.00,VWS V14.01,2013-03-08 10:30:00,
2013-03-08 04:32:00,17.2,14.8,30.32,East,97,0.0,0.0,90,0.00,,SKC,0.00,VWS V14.01,2013-03-08 10:32:00,
2013-03-08 04:37:00,17.2,14.5,30.32,East,97,0.0,0.0,89,0.00,,SKC,0.00,VWS V14.01,2013-03-08 10:37:00,
2013-03-08 04:42:00,17.1,14.4,30.32,East,97,0.0,2.0,89,0.00,,SKC,0.00,VWS V14.01,2013-03-08 10:42:00,
2013-03-08 04:47:00,17.2,14.8,30.32,East,97,0.0,2.0,90,0.00,,SKC,0.00,VWS V14.01,2013-03-08 10:47:00,
2013-03-08 04:52:00,17.2,14.8,30.32,East,97,1.0,2.0,90,0.00,,SKC,0.00,VWS V14.01,2013-03-08 10:52:00,
2013-03-08 04:57:00,17.3,14.9,30.32,East,97,1.0,2.0,90,0.00,,SKC,0.00,VWS V14.01,2013-03-08 10:57:00,
2013-03-08 05:00:00,16.9,14.7,30.32,East,97,0.0,2.0,91,0.00,,SKC,0.00,VWS V14.01,2013-03-08 11:00:00,
2013-03-08 05:02:00,17.4,15.0,30.32,East,97,0.0,2.0,90,0.00,,SKC,0.00,VWS V14.01,2013-03-08 11:02:00,
2013-03-08 05:07:00,17.4,15.0,30.32,East,97,0.0,2.0,90,0.00,,SKC,0.00,VWS V14.01,2013-03-08 11:07:00,
2013-03-08 05:12:00,17.3,14.6,30.32,East,97,0.0,2.0,89,0.00,,SKC,0.00,VWS V14.01,2013-03-08 11:12:00,
2013-03-08 05:17:00,17.2,14.8,30.32,East,97,0.0,2.0,90,0.00,,SKC,0.00,VWS V14.01,2013-03-08 11:17:00,
2013-03-08 05:22:00,17.2,14.8,30.33,East,97,0.0,2.0,90,0.00,,SKC,0.00,VWS V14.01,2013-03-08 11:22:00,
2013-03-08 05:27:00,17.1,14.7,30.33,East,97,0.0,2.0,90,0.00,,SKC,0.00,VWS V14.01,2013-03-08 11:27:00,
2013-03-08 05:30:00,16.9,14.7,30.32,East,97,2.0,4.0,91,0.00,,SKC,0.00,VWS V14.01,2013-03-08 11:30:00,
2013-03-08 05:32:00,17.0,14.6,30.33,East,97,1.0,2.0,90,0.00,,SKC,0.00,VWS V14.01,2013-03-08 11:32:00,
2013-03-08 05:37:00,17.0,14.6,30.32,East,97,0.0,2.0,90,0.00,,SKC,0.00,VWS V14.01,2013-03-08 11:37:00,
2013-03-08 05:42:00,17.0,14.8,30.32,East,97,0.0,2.0,91,0.00,,SKC,0.00,VWS V14.01,2013-03-08 11:42:00,
2013-03-08 05:47:00,17.0,14.6,30.32,East,97,0.0,2.0,90,0.00,,SKC,0.00,VWS V14.01,2013-03-08 11:47:00,
2013-03-08 05:52:00,17.0,14.8,30.32,East,97,0.0,2.0,91,0.00,,SKC,0.00,VWS V14.01,2013-03-08 11:52:00,
2013-03-08 05:57:00,16.9,14.7,30.32,East,97,0.0,2.0,91,0.00,,SKC,0.00,VWS V14.01,2013-03-08 11:57:00,
2013-03-08 06:00:00,16.4,14.5,30.32,East,97,0.0,4.0,92,0.00,,SKC,0.00,VWS V14.01,2013-03-08 12:00:00,
2013-03-08 06:02:00,16.9,14.7,30.32,East,97,0.0,1.0,91,0.00,,SKC,0.00,VWS V14.01,2013-03-08 12:02:00,
2013-03-08 06:07:00,16.9,14.7,30.32,East,97,0.0,1.0,91,0.00,,SKC,0.00,VWS V14.01,2013-03-08 12:07:00,
2013-03-08 06:12:00,16.8,14.6,30.32,East,97,0.0,1.0,91,0.00,,SKC,0.00,VWS V14.01,2013-03-08 12:12:00,
2013-03-08 06:17:00,16.8,14.6,30.32,East,97,2.0,2.0,91,0.00,,SKC,0.00,VWS V14.01,2013-03-08 12:17:00,
2013-03-08 06:22:00,16.8,14.6,30.32,East,97,4.0,4.0,91,0.00,,SKC,0.00,VWS V14.01,2013-03-08 12:22:00,
2013-03-08 06:27:00,16.9,14.7,30.32,East,97,0.0,4.0,91,0.00,,SKC,0.00,VWS V14.01,2013-03-08 12:27:00,
2013-03-08 06:30:00,17.8,15.9,30.32,ESE,109,0.0,5.0,92,0.00,,SKC,0.00,VWS V14.01,2013-03-08 12:30:00,
2013-03-08 06:32:00,16.9,14.7,30.32,East,97,0.0,2.0,91,0.00,,SKC,0.00,VWS V14.01,2013-03-08 12:32:00,
2013-03-08 06:37:00,16.7,14.5,30.33,East,97,0.0,2.0,91,0.00,,SKC,0.00,VWS V14.01,2013-03-08 12:37:00,
2013-03-08 06:42:00,16.5,14.3,30.33,East,97,0.0,2.0,91,0.00,,SKC,0.00,VWS V14.01,2013-03-08 12:42:00,
2013-03-08 06:47:00,16.3,14.1,30.32,East,97,0.0,2.0,91,0.00,,SKC,0.00,VWS V14.01,2013-03-08 12:47:00,
2013-03-08 06:52:00,16.2,14.0,30.32,East,97,1.0,4.0,91,0.00,,SKC,0.00,VWS V14.01,2013-03-08 12:52:00,
2013-03-08 06:57:00,16.3,14.4,30.32,East,97,0.0,4.0,92,0.00,,SKC,0.00,VWS V14.01,2013-03-08 12:57:00,
2013-03-08 07:00:00,19.6,17.1,30.31,ESE,115,5.0,6.0,90,0.00,,SKC,0.00,VWS V14.01,2013-03-08 13:00:00,
2013-03-08 07:02:00,16.5,14.6,30.32,East,97,0.0,2.0,92,0.00,,SKC,0.00,VWS V14.01,2013-03-08 13:02:00,
2013-03-08 07:07:00,16.7,14.8,30.32,East,97,0.0,2.0,92,0.00,,SKC,0.00,VWS V14.01,2013-03-08 13:07:00,
2013-03-08 07:12:00,16.9,15.0,30.32,East,97,0.0,4.0,92,0.00,,SKC,0.00,VWS V14.01,2013-03-08 13:12:00,
2013-03-08 07:17:00,17.1,15.2,30.32,East,97,0.0,5.0,92,0.00,,SKC,0.00,VWS V14.01,2013-03-08 13:17:00,
2013-03-08 07:22:00,17.3,15.4,30.32,ESE,123,2.0,5.0,92,0.00,,SKC,0.00,VWS V14.01,2013-03-08 13:22:00,
2013-03-08 07:27:00,17.7,15.8,30.32,ESE,109,0.0,5.0,92,0.00,,SKC,0.00,VWS V14.01,2013-03-08 13:27:00,
2013-03-08 07:30:00,21.8,18.5,30.31,ESE,119,4.0,7.0,87,0.00,,SKC,0.00,VWS V14.01,2013-03-08 13:30:00,
2013-03-08 07:32:00,17.9,16.0,30.32,ESE,109,0.0,1.0,92,0.00,,SKC,0.00,VWS V14.01,2013-03-08 13:32:00,
2013-03-08 07:37:00,18.3,16.4,30.32,SE,136,2.0,6.0,92,0.00,,SKC,0.00,VWS V14.01,2013-03-08 13:37:00,
2013-03-08 07:42:00,18.6,16.4,30.31,ESE,113,2.0,6.0,91,0.00,,SKC,0.00,VWS V14.01,2013-03-08 13:42:00,
2013-03-08 07:47:00,18.9,16.7,30.31,SE,126,1.0,6.0,91,0.00,,SKC,0.00,VWS V14.01,2013-03-08 13:47:00,
2013-03-08 07:52:00,19.2,17.0,30.31,ESE,116,0.0,6.0,91,0.00,,SKC,0.00,VWS V14.01,2013-03-08 13:52:00,
2013-03-08 07:57:00,19.5,17.0,30.31,ESE,115,0.0,6.0,90,0.00,,SKC,0.00,VWS V14.01,2013-03-08 13:57:00,
2013-03-08 08:00:00,24.0,19.6,30.31,ESE,120,0.0,8.0,83,0.00,,SKC,0.00,VWS V14.01,2013-03-08 14:00:00,
2013-03-08 08:02:00,19.9,17.5,30.31,ESE,115,2.0,5.0,90,0.00,,SKC,0.00,VWS V14.01,2013-03-08 14:02:00,
2013-03-08 08:08:00,20.2,17.5,30.31,ESE,117,2.0,6.0,89,0.00,,SKC,0.00,VWS V14.01,2013-03-08 14:08:00,
2013-03-08 08:13:00,20.6,17.9,30.31,ESE,123,1.0,6.0,89,0.00,,SKC,0.00,VWS V14.01,2013-03-08 14:13:00,
2013-03-08 08:18:00,21.0,18.0,30.31,ESE,105,4.0,6.0,88,0.00,,SKC,0.00,VWS V14.01,2013-03-08 14:18:00,
2013-03-08 08:23:00,21.3,18.0,30.31,East,86,2.0,7.0,87,0.00,,SKC,0.00,VWS V14.01,2013-03-08 14:23:00,
2013-03-08 08:28:00,21.7,18.4,30.31,ESE,117,5.0,7.0,87,0.00,,SKC,0.00,VWS V14.01,2013-03-08 14:28:00,
2013-03-08 08:30:00,25.7,21.0,30.32,ESE,119,6.0,7.0,82,0.00,,SKC,0.00,VWS V14.01,2013-03-08 14:30:00,
2013-03-08 08:34:00,22.1,18.6,30.31,ESE,105,1.0,5.0,86,0.00,,SKC,0.00,VWS V14.01,2013-03-08 14:34:00,
2013-03-08 08:39:00,22.6,19.0,30.31,ESE,113,1.0,6.0,86,0.00,,SKC,0.00,VWS V14.01,2013-03-08 14:39:00,
2013-03-08 08:44:00,23.0,19.5,30.31,SE,126,1.0,6.0,86,0.00,,SKC,0.00,VWS V14.01,2013-03-08 14:44:00,
2013-03-08 08:49:00,23.3,19.5,30.31,SSE,167,0.0,6.0,85,0.00,,SKC,0.00,VWS V14.01,2013-03-08 14:49:00,
2013-03-08 08:54:00,23.6,19.8,30.31,SE,136,0.0,8.0,85,0.00,,SKC,0.00,VWS V14.01,2013-03-08 14:54:00,
2013-03-08 08:59:00,24.0,19.6,30.31,ESE,120,1.0,1.0,83,0.00,,SKC,0.00,VWS V14.01,2013-03-08 14:59:00,
2013-03-08 09:00:00,27.4,22.0,30.31,SW,231,1.0,11.0,80,0.01,,SKC,0.01,VWS V14.01,2013-03-08 15:00:00,
2013-03-08 09:04:00,24.3,19.9,30.32,SE,126,0.0,4.0,83,0.00,,SKC,0.00,VWS V14.01,2013-03-08 15:04:00,
2013-03-08 09:09:00,24.6,20.2,30.31,SE,135,2.0,6.0,83,0.00,,SKC,0.00,VWS V14.01,2013-03-08 15:09:00,
2013-03-08 09:14:00,24.8,20.4,30.31,ESE,121,5.0,7.0,83,0.00,,SKC,0.00,VWS V14.01,2013-03-08 15:14:00,
2013-03-08 09:19:00,25.2,20.8,30.31,ESE,116,2.0,7.0,83,0.00,,SKC,0.00,VWS V14.01,2013-03-08 15:19:00,
2013-03-08 09:24:00,25.4,20.7,30.31,ESE,115,4.0,7.0,82,0.00,,SKC,0.00,VWS V14.01,2013-03-08 15:24:00,
2013-03-08 09:29:00,25.8,21.1,30.32,ESE,119,5.0,6.0,82,0.00,,SKC,0.00,VWS V14.01,2013-03-08 15:29:00,
2013-03-08 09:30:00,29.1,23.1,30.30,SE,133,0.0,9.0,78,1.47,,SKC,0.01,VWS V14.01,2013-03-08 15:30:00,
2013-03-08 09:34:00,26.0,21.3,30.32,ESE,119,1.0,6.0,82,0.00,,SKC,0.00,VWS V14.01,2013-03-08 15:34:00,
2013-03-08 09:39:00,26.3,21.6,30.32,SE,129,4.0,7.0,82,0.00,,SKC,0.00,VWS V14.01,2013-03-08 15:39:00,
2013-03-08 09:44:00,26.7,21.7,30.32,ESE,120,4.0,7.0,81,0.00,,SKC,0.00,VWS V14.01,2013-03-08 15:44:00,
2013-03-08 09:49:00,27.0,22.0,30.32,SSE,154,1.0,9.0,81,0.00,,SKC,0.00,VWS V14.01,2013-03-08 15:49:00,
2013-03-08 09:54:00,27.4,22.0,30.31,SE,125,1.0,9.0,80,0.00,,SKC,0.00,VWS V14.01,2013-03-08 15:54:00,
2013-03-08 09:59:00,27.4,22.0,30.31,SW,231,1.0,11.0,80,0.01,,SKC,0.01,VWS V14.01,2013-03-08 15:59:00,
2013-03-08 10:00:00,30.7,24.0,30.29,ESE,112,3.0,8.0,76,0.02,,SKC,0.02,VWS V14.01,2013-03-08 16:00:00,
2013-03-08 10:04:00,27.6,22.2,30.31,ESE,119,4.0,7.0,80,0.01,,SKC,0.01,VWS V14.01,2013-03-08 16:04:00,
2013-03-08 10:09:00,27.7,22.4,30.31,ESE,119,4.0,9.0,80,0.01,,SKC,0.01,VWS V14.01,2013-03-08 16:09:00,
2013-03-08 10:14:00,28.0,22.3,30.31,ESE,111,5.0,9.0,79,0.01,,SKC,0.01,VWS V14.01,2013-03-08 16:14:00,
2013-03-08 10:19:00,28.3,22.6,30.30,ESE,123,1.0,9.0,79,0.01,,SKC,0.01,VWS V14.01,2013-03-08 16:19:00,
2013-03-08 10:24:00,28.8,23.1,30.30,SE,136,0.0,9.0,79,0.01,,SKC,0.01,VWS V14.01,2013-03-08 16:24:00,
2013-03-08 10:30:00,31.4,24.1,30.30,ESE,112,2.0,8.0,74,0.03,,SKC,0.03,VWS V14.01,2013-03-08 16:30:00,
2013-03-08 10:39:00,29.5,23.0,30.29,SE,132,1.0,-999.0,77,-99.99,,,0.01,weatherlink.com 1.10,2013-03-08 16:39:00,
2013-03-08 10:54:00,30.3,24.0,30.29,ESE,107,1.0,-999.0,77,-99.99,,,0.02,weatherlink.com 1.10,2013-03-08 16:54:00,
2013-03-08 11:00:00,32.4,25.0,30.29,East,90,3.0,8.0,74,0.04,,SKC,0.04,VWS V14.01,2013-03-08 17:00:00,
2013-03-08 11:09:00,31.3,24.0,30.29,ESE,120,5.0,-999.0,75,-99.99,,,0.02,weatherlink.com 1.10,2013-03-08 17:09:00,
2013-03-08 11:24:00,31.2,24.0,30.30,ESE,111,5.0,-999.0,75,-99.99,,,0.03,weatherlink.com 1.10,2013-03-08 17:24:00,
2013-03-08 11:30:00,34.4,26.0,30.28,ESE,112,3.0,10.0,71,0.06,,SKC,0.07,VWS V14.01,2013-03-08 17:30:00,
2013-03-08 11:39:00,31.5,24.0,30.29,ESE,121,7.0,-999.0,74,-99.99,,,0.03,weatherlink.com 1.10,2013-03-08 17:39:00,
2013-03-08 11:54:00,31.8,24.0,30.29,East,80,2.0,-999.0,74,-99.99,,,0.04,weatherlink.com 1.10,2013-03-08 17:54:00,
2013-03-08 12:00:00,34.9,26.5,30.26,SE,135,3.0,9.0,71,0.08,,SKC,0.09,VWS V14.01,2013-03-08 18:00:00,
2013-03-08 12:09:00,33.0,25.0,30.28,ENE,74,5.0,-999.0,73,-99.99,,,0.05,weatherlink.com 1.10,2013-03-08 18:09:00,
2013-03-08 12:24:00,34.1,26.0,30.28,SSE,151,1.0,-999.0,71,-99.99,,,0.06,weatherlink.com 1.10,2013-03-08 18:24:00,
2013-03-08 12:30:00,35.8,26.3,30.25,SE,135,2.0,11.0,68,0.08,,SKC,0.10,VWS V14.01,2013-03-08 18:30:00,
2013-03-08 12:39:00,34.5,26.0,30.27,South,172,5.0,-999.0,70,-99.99,,,0.07,weatherlink.com 1.10,2013-03-08 18:39:00,
2013-03-08 12:54:00,34.8,26.0,30.27,ENE,70,6.0,-999.0,70,-99.99,,,0.08,weatherlink.com 1.10,2013-03-08 18:54:00,
2013-03-08 13:00:00,35.3,26.5,30.24,East,90,4.0,10.0,70,0.08,,SKC,0.11,VWS V14.01,2013-03-08 19:00:00,
2013-03-08 13:09:00,35.2,26.0,30.26,ESE,123,0.0,-999.0,70,-99.99,,,0.09,weatherlink.com 1.10,2013-03-08 19:09:00,
2013-03-08 13:24:00,35.7,26.0,30.25,SSE,150,0.0,-999.0,69,-99.99,,,0.09,weatherlink.com 1.10,2013-03-08 19:24:00,
2013-03-08 13:30:00,36.4,27.2,30.24,East,90,4.0,9.0,69,0.07,,SKC,0.11,VWS V14.01,2013-03-08 19:30:00,
2013-03-08 13:39:00,35.3,26.0,30.25,East,80,6.0,-999.0,69,-99.99,,,0.10,weatherlink.com 1.10,2013-03-08 19:39:00,
2013-03-08 13:54:00,35.3,26.0,30.24,SE,125,4.0,-999.0,70,-99.99,,,0.11,weatherlink.com 1.10,2013-03-08 19:54:00,
2013-03-08 14:00:00,37.1,27.5,30.23,ESE,112,3.0,12.0,68,0.04,,SKC,0.11,VWS V14.01,2013-03-08 20:00:00,
2013-03-08 14:09:00,35.9,27.0,30.24,East,85,4.0,-999.0,69,-99.99,,,0.11,weatherlink.com 1.10,2013-03-08 20:09:00,
2013-03-08 14:24:00,36.3,27.0,30.24,ESE,109,2.0,-999.0,69,-99.99,,,0.11,weatherlink.com 1.10,2013-03-08 20:24:00,
2013-03-08 14:30:00,37.6,28.4,30.23,ESE,112,4.0,11.0,69,0.02,,SKC,0.11,VWS V14.01,2013-03-08 20:30:00,
2013-03-08 14:39:00,36.8,27.0,30.24,ESE,123,5.0,-999.0,68,-99.99,,,0.11,weatherlink.com 1.10,2013-03-08 20:39:00,
2013-03-08 14:55:00,37.2,27.0,30.23,ESE,112,9.0,-999.0,68,-99.99,,,0.11,weatherlink.com 1.10,2013-03-08 20:55:00,
2013-03-08 15:00:00,37.3,27.7,30.23,ESE,112,4.0,11.0,68,0.02,,SKC,0.12,VWS V14.01,2013-03-08 21:00:00,
2013-03-08 15:10:00,37.2,27.0,30.23,East,92,5.0,-999.0,68,-99.99,,,0.11,weatherlink.com 1.10,2013-03-08 21:10:00,
2013-03-08 15:25:00,37.6,28.0,30.23,ESE,113,4.0,-999.0,68,-99.99,,,0.11,weatherlink.com 1.10,2013-03-08 21:25:00,
2013-03-08 15:30:00,36.9,28.4,30.23,ESE,112,3.0,9.0,71,0.01,,SKC,0.12,VWS V14.01,2013-03-08 21:30:00,
2013-03-08 15:40:00,37.6,28.0,30.24,SE,124,4.0,-999.0,68,-99.99,,,0.12,weatherlink.com 1.10,2013-03-08 21:40:00,
2013-03-08 15:55:00,37.5,28.0,30.23,ENE,76,6.0,-999.0,68,-99.99,,,0.12,weatherlink.com 1.10,2013-03-08 21:55:00,
2013-03-08 16:00:00,36.9,28.4,30.22,SE,135,3.0,11.0,71,0.01,,SKC,0.12,VWS V14.01,2013-03-08 22:00:00,
2013-03-08 16:10:00,36.9,28.0,30.23,ESE,105,4.0,-999.0,70,-99.99,,,0.12,weatherlink.com 1.10,2013-03-08 22:10:00,
2013-03-08 16:25:00,36.8,28.0,30.23,SE,128,2.0,-999.0,71,-99.99,,,0.12,weatherlink.com 1.10,2013-03-08 22:25:00,
2013-03-08 16:30:00,36.3,28.1,30.22,ESE,112,1.0,7.0,72,0.01,,SKC,0.12,VWS V14.01,2013-03-08 22:30:00,
2013-03-08 16:40:00,37.0,28.0,30.23,ESE,107,4.0,-999.0,70,-99.99,,,0.12,weatherlink.com 1.10,2013-03-08 22:40:00,
2013-03-08 16:55:00,36.9,28.0,30.23,SE,125,4.0,-999.0,71,-99.99,,,0.12,weatherlink.com 1.10,2013-03-08 22:55:00,
2013-03-08 17:00:00,35.6,28.1,30.21,ESE,112,0.0,2.0,74,0.01,,SKC,0.12,VWS V14.01,2013-03-08 23:00:00,
2013-03-08 17:10:00,36.7,28.0,30.22,East,82,2.0,-999.0,71,-99.99,,,0.12,weatherlink.com 1.10,2013-03-08 23:10:00,
2013-03-08 17:25:00,36.4,28.0,30.22,ESE,110,2.0,-999.0,72,-99.99,,,0.12,weatherlink.com 1.10,2013-03-08 23:25:00,
2013-03-08 17:30:00,34.6,27.8,30.20,ESE,112,0.0,2.0,76,0.00,,SKC,0.12,VWS V14.01,2013-03-08 23:30:00,
2013-03-08 17:40:00,36.1,28.0,30.22,ESE,110,0.0,-999.0,73,-99.99,,,0.12,weatherlink.com 1.10,2013-03-08 23:40:00,
2013-03-08 17:55:00,35.7,28.0,30.21,ESE,110,0.0,-999.0,74,-99.99,,,0.12,weatherlink.com 1.10,2013-03-08 23:55:00,
2013-03-08 18:00:00,32.8,27.6,30.19,ESE,112,0.0,1.0,81,0.00,,SKC,0.12,VWS V14.01,2013-03-09 00:00:00,
2013-03-08 18:10:00,35.3,28.0,30.20,ESE,110,0.0,-999.0,75,-99.99,,,0.12,weatherlink.com 1.10,2013-03-09 00:10:00,
2013-03-08 18:25:00,34.7,28.0,30.20,ESE,110,0.0,-999.0,76,-99.99,,,0.12,weatherlink.com 1.10,2013-03-09 00:25:00,
2013-03-08 18:30:00,32.8,27.6,30.17,ESE,112,0.0,1.0,81,0.00,,SKC,0.12,VWS V14.01,2013-03-09 00:30:00,
2013-03-08 18:40:00,34.1,28.0,30.20,ESE,110,0.0,-999.0,77,-99.99,,,0.12,weatherlink.com 1.10,2013-03-09 00:40:00,
2013-03-08 18:55:00,33.1,28.0,30.20,ESE,110,0.0,-999.0,80,-99.99,,,0.12,weatherlink.com 1.10,2013-03-09 00:55:00,
2013-03-08 19:00:00,32.6,27.7,30.17,ESE,112,0.0,2.0,82,0.00,,SKC,0.12,VWS V14.01,2013-03-09 01:00:00,
2013-03-08 19:10:00,32.6,28.0,30.19,ESE,110,0.0,-999.0,82,-99.99,,,0.12,weatherlink.com 1.10,2013-03-09 01:10:00,
2013-03-08 19:25:00,32.7,28.0,30.18,ESE,110,0.0,-999.0,81,-99.99,,,0.12,weatherlink.com 1.10,2013-03-09 01:25:00,
2013-03-08 19:30:00,31.3,26.5,30.16,ESE,112,0.0,1.0,82,0.00,,SKC,0.12,VWS V14.01,2013-03-09 01:30:00,
2013-03-08 19:40:00,32.9,28.0,30.18,ESE,110,0.0,-999.0,81,-99.99,,,0.12,weatherlink.com 1.10,2013-03-09 01:40:00,
2013-03-08 19:55:00,32.7,28.0,30.17,ESE,110,0.0,-999.0,81,-99.99,,,0.12,weatherlink.com 1.10,2013-03-09 01:55:00,
2013-03-08 20:00:00,30.0,26.0,30.15,ESE,112,0.0,1.0,85,0.00,,SKC,0.12,VWS V14.01,2013-03-09 02:00:00,
2013-03-08 20:10:00,32.5,28.0,30.17,ESE,110,0.0,-999.0,82,-99.99,,,0.12,weatherlink.com 1.10,2013-03-09 02:10:00,
2013-03-08 20:25:00,31.6,27.0,30.16,ESE,110,0.0,-999.0,83,-99.99,,,0.12,weatherlink.com 1.10,2013-03-09 02:25:00,
2013-03-08 20:30:00,30.6,27.2,30.15,ESE,112,0.0,1.0,87,0.00,,SKC,0.12,VWS V14.01,2013-03-09 02:30:00,
2013-03-08 20:40:00,30.9,27.0,30.16,ESE,110,0.0,-999.0,84,-99.99,,,0.12,weatherlink.com 1.10,2013-03-09 02:40:00,
2013-03-08 20:55:00,30.1,26.0,30.15,ESE,110,0.0,-999.0,85,-99.99,,,0.12,weatherlink.com 1.10,2013-03-09 02:55:00,
2013-03-08 21:00:00,29.1,26.0,30.14,ESE,112,0.0,0.0,88,0.00,,SKC,0.12,VWS V14.01,2013-03-09 03:00:00,
2013-03-08 21:10:00,29.8,26.0,30.15,ESE,110,0.0,-999.0,86,-99.99,,,0.12,weatherlink.com 1.10,2013-03-09 03:10:00,
2013-03-08 21:25:00,30.3,27.0,30.15,ESE,110,0.0,-999.0,88,-99.99,,,0.12,weatherlink.com 1.10,2013-03-09 03:25:00,
2013-03-08 21:30:00,29.0,26.2,30.13,ESE,112,0.0,2.0,89,0.00,,SKC,0.12,VWS V14.01,2013-03-09 03:30:00,
2013-03-08 21:40:00,30.3,27.0,30.14,ESE,110,0.0,-999.0,86,-99.99,,,0.12,weatherlink.com 1.10,2013-03-09 03:40:00,
2013-03-08 21:55:00,29.2,26.0,30.14,ESE,110,0.0,-999.0,87,-99.99,,,0.12,weatherlink.com 1.10,2013-03-09 03:55:00,
2013-03-08 22:00:00,28.9,26.3,30.11,ESE,112,0.0,1.0,90,0.00,,SKC,0.12,VWS V14.01,2013-03-09 04:00:00,
2013-03-08 22:10:00,28.7,26.0,30.14,ESE,110,0.0,-999.0,89,-99.99,,,0.12,weatherlink.com 1.10,2013-03-09 04:10:00,
2013-03-08 22:25:00,29.1,26.0,30.13,ESE,110,0.0,-999.0,89,-99.99,,,0.12,weatherlink.com 1.10,2013-03-09 04:25:00,
2013-03-08 22:30:00,30.1,27.0,30.10,ESE,112,0.0,4.0,88,0.00,,SKC,0.12,VWS V14.01,2013-03-09 04:30:00,
2013-03-08 22:40:00,28.8,26.0,30.13,ESE,110,0.0,-999.0,89,-99.99,,,0.12,weatherlink.com 1.10,2013-03-09 04:40:00,
2013-03-08 22:55:00,28.7,26.0,30.12,ESE,110,0.0,-999.0,90,-99.99,,,0.12,weatherlink.com 1.10,2013-03-09 04:55:00,
2013-03-08 23:00:00,31.2,27.2,30.09,ESE,112,1.0,5.0,85,0.00,,SKC,0.00,VWS V14.01,2013-03-09 05:00:00,
2013-03-08 23:10:00,29.5,27.0,30.11,ESE,110,0.0,-999.0,89,-99.99,,,0.12,weatherlink.com 1.10,2013-03-09 05:10:00,
2013-03-08 23:25:00,30.0,27.0,30.10,ESE,110,2.0,-999.0,88,-99.99,,,0.12,weatherlink.com 1.10,2013-03-09 05:25:00,
2013-03-08 23:30:00,32.1,27.8,30.08,ESE,112,1.0,6.0,84,0.00,,SKC,0.00,VWS V14.01,2013-03-09 05:30:00,
2013-03-08 23:40:00,30.6,27.0,30.09,ESE,110,0.0,-999.0,87,-99.99,,,0.12,weatherlink.com 1.10,2013-03-09 05:40:00,
2013-03-08 23:55:00,31.1,27.0,30.09,ESE,113,2.0,-999.0,86,-99.99,,,0.12,weatherlink.com 1.10,2013-03-09 05:55:00,